Location: Frankfurt+am+Main
(50.1100°N, 8.4815°E)
Time: 00:48:19
(UTC+01:00)

Tiangong 1 - Visible Passes

Search period start: 25 November 2017 00:00
Search period end: 05 December 2017 00:00
Orbit: 283 x 307 km, 42.8° (Epoch: 24 November)

Date Brightness Start Highest point End Pass type
(mag) Time Alt. Az. Time Alt. Az. Time Alt. Az.
28 Nov 3.2 18:06:20 10° SSW 18:07:28 12° SSE 18:08:00 12° SSE visible
29 Nov 3.0 18:11:35 10° SSW 18:13:11 15° S 18:13:37 14° SSE visible
30 Nov 2.9 18:17:01 10° SW 18:18:46 16° S 18:19:08 16° SSE visible
01 Dec 3.0 18:22:30 10° SW 18:24:14 16° S 18:24:32 16° S visible
02 Dec 3.2 18:28:01 10° SW 18:29:32 14° S 18:29:52 14° S visible
03 Dec 3.5 18:33:43 10° SW 18:34:41 11° SSW 18:35:08 11° S visible
04 Dec 3.4 17:03:58 10° SW 17:05:40 16° S 17:07:23 10° SE visible
